Tracking 25953 objects as of 16-Aug-2022
HD Live streaming from Space Station
objects crossing your sky now

SUCHAI

Track SUCHAI now!
10-day predictions
SUCHAI is classified as:


NORAD ID: 42788
Int'l Code: 2017-036Z
Perigee: 469.6 km
Apogee: 484.8 km
Inclination: 97.2 °
Period: 94.0 minutes
Semi major axis: 6848 km
RCS: Unknown
Launch date: June 23, 2017
Source: Chile (CHLE)
Launch site: SRIHARIKOTA (SRI)

Uplink (MHz):
Downlink (MHz): 437.225
Beacon (MHz): 437.229
Mode: CW
Call sign: SUCHAI
Status: Active

aabbcc
Your satellite tracking list
Your tracking list is empty




NASA's NSSDC Master Catalog

Two Line Element Set (TLE):
1 42788U 17036Z   22227.05359703  .00010973  00000-0  35749-3 0  9994
2 42788  97.1951 268.9143 0011088 110.9059 249.3371 15.31936686286158
Source of the keplerian elements: AMSAT